Weather History for KMMU - December, 2012

Change the Weather History Date:

Sunday, December 9, 2012

  Actual Average (KEWR) Record (KEWR)
Temperature  
Mean Temperature 40 °F 38 °F  
Max Temperature 46 °F 46 °F 68 °F (1966)
Min Temperature 33 °F 32 °F 12 °F (1934)
Degree Days  
Heating Degree Days 26 26  
Month to date heating degree days 225  
Since 1 July heating degree days 1093  
Cooling Degree Days 0 0  
Month to date cooling degree days 0  
Year to date cooling degree days 1192  
Moisture  
Dew Point 39 °F    
Average Humidity 95    
Maximum Humidity 100    
Minimum Humidity 76    
Precipitation  
Precipitation 0.00 in 0.13 in 1.96 in (2009)
Month to date precipitation 1.18  
Year to date precipitation 43.62  
Snow  
Snow 0.00 in 0.10 in 6.00 in (2005)
Month to date snowfall 1.0  
Since 1 July snowfall 1.4  
Snow Depth -    
Sea Level Pressure  
Sea Level Pressure 30.12 in    
Wind  
Wind Speed 2 mph (NE)    
Max Wind Speed 9 mph    
Max Gust Speed -    
Visibility 4 miles    
Events Fog , Rain    
T = Trace of Precipitation, MM = Missing Value Source: NWS Daily Summary

Daily Weather History Graph

Daily Weather History Graph

Search for Another Location

Airport or City:

Trip Planner

Search our weather history database for the weather conditions in past years. The results will help you decide how hot, cold, wet, or windy it might be!

Date:

Astronomy

Dec. 09, 2012 Rise Set
Actual Time 7:10 AM EST 4:29 PM EST
Civil Twilight 6:39 AM EST 5:00 PM EST
Nautical Twilight 6:05 AM EST 5:35 PM EST
Astronomical Twilight 5:32 AM EST 6:08 PM EST
Moon 2:39 AM EST (12/9) 1:36 PM EST (12/9)
Length of Visible Light 10h 21m
Length of Day
9h 19m
Waning Crescent, 19% of the Moon is Illuminated
Dec 9
Waning Crescent
Dec 13
New
Dec 20
First Quarter
Dec 28
Full
Jan 4
Last Quarter

Hourly Weather History & Observations

Time (EST) Temp. Windchill Dew Point Humidity Pressure Visibility Wind Dir Wind Speed Gust Speed Precip Events Conditions
12:15 AM 46.4 °F - 46.4 °F 100% 30.01 in 2.5 mi Calm Calm - N/A   Overcast
12:35 AM 44.6 °F - 44.6 °F 100% 30.01 in 1.5 mi Calm Calm - N/A   Overcast
12:55 AM 44.6 °F - 44.6 °F 100% 30.01 in 1.2 mi Calm Calm - N/A   Overcast
1:15 AM 42.8 °F - 42.8 °F 100% 30.02 in 0.2 mi Calm Calm - N/A Fog Fog
1:35 AM 41.0 °F - 41.0 °F 100% 30.03 in 0.2 mi Calm Calm - N/A Fog Fog
1:55 AM 39.2 °F - 39.2 °F 100% 30.04 in 0.2 mi Calm Calm - N/A Fog Fog
2:15 AM 39.2 °F - 39.2 °F 100% 30.06 in 0.2 mi Calm Calm - N/A Fog Fog
2:35 AM 37.4 °F - 37.4 °F 100% 30.06 in 0.2 mi Calm Calm - N/A Fog Fog
2:55 AM 37.4 °F - 37.4 °F 100% 30.07 in 0.5 mi Calm Calm - N/A Fog Fog
3:15 AM 37.4 °F - 37.4 °F 100% 30.07 in 0.5 mi Calm Calm - N/A Fog Fog
3:35 AM 37.4 °F - 37.4 °F 100% 30.08 in 0.2 mi Calm Calm - N/A Fog Fog
3:55 AM 37.4 °F - 37.4 °F 100% 30.08 in 0.2 mi Calm Calm - N/A Fog Fog
4:15 AM 35.6 °F - 35.6 °F 100% 30.09 in 0.8 mi Calm Calm - N/A   Overcast
4:35 AM 33.8 °F - 33.8 °F 100% 30.09 in 3.0 mi Calm Calm - N/A   Clear
4:55 AM 33.8 °F - 33.8 °F 100% 30.11 in 3.0 mi Calm Calm - N/A   Clear
5:15 AM 33.8 °F - 33.8 °F 100% 30.12 in 4.0 mi Calm Calm - N/A   Scattered Clouds
5:35 AM 37.4 °F - 37.4 °F 100% 30.13 in 7.0 mi Calm Calm - N/A   Scattered Clouds
6:45 AM 42.8 °F 39.3 °F 41.0 °F 93% 30.18 in 8.0 mi NNW 5.8 mph - N/A   Scattered Clouds
7:45 AM 44.6 °F 42.2 °F 41.0 °F 87% 30.21 in 10.0 mi NNE 4.6 mph - N/A   Overcast
8:45 AM 44.6 °F 43.1 °F 39.2 °F 81% 30.22 in 10.0 mi NNE 3.5 mph - N/A   Overcast
9:45 AM 44.6 °F 40.7 °F 41.0 °F 87% 30.25 in 10.0 mi NE 6.9 mph - N/A   Overcast
10:45 AM 44.6 °F 40.7 °F 39.2 °F 81% 30.25 in 10.0 mi ENE 6.9 mph - N/A   Overcast
11:45 AM 44.6 °F 40.7 °F 37.4 °F 76% 30.24 in 10.0 mi ENE 6.9 mph - N/A   Overcast
12:45 PM 42.8 °F 37.5 °F 35.6 °F 76% 30.22 in 10.0 mi ENE 9.2 mph - N/A   Overcast
1:45 PM 42.8 °F 38.0 °F 35.6 °F 76% 30.20 in 10.0 mi NE 8.1 mph - N/A   Overcast
2:45 PM 41.0 °F 37.1 °F 35.6 °F 81% 30.21 in 10.0 mi NE 5.8 mph - N/A Rain Light Rain
4:45 PM 41.0 °F 39.0 °F 35.6 °F 81% 30.21 in 7.0 mi NE 3.5 mph - N/A   Overcast
5:45 PM 39.2 °F 37.0 °F 37.4 °F 93% 30.20 in 7.0 mi NNE 3.5 mph - N/A   Overcast
6:45 PM 39.2 °F 35.9 °F 37.4 °F 93% 30.19 in 7.0 mi NE 4.6 mph - N/A   Overcast
7:06 PM 39.2 °F 34.2 °F 37.4 °F 93% 30.19 in 2.0 mi NE 6.9 mph - N/A Fog Heavy Fog
7:45 PM 39.2 °F 34.2 °F 39.2 °F 100% 30.17 in 2.0 mi NE 6.9 mph - N/A Fog Fog
8:45 PM 41.0 °F 37.1 °F 39.2 °F 93% 30.12 in 2.0 mi NE 5.8 mph - N/A   Overcast
9:45 PM 41.0 °F 37.1 °F 39.2 °F 93% 30.10 in 2.0 mi North 5.8 mph - N/A Rain Light Rain
9:55 PM 41.0 °F 38.0 °F 41.0 °F 100% 30.08 in 2.5 mi NNE 4.6 mph - N/A Rain Heavy Rain
10:15 PM 41.0 °F 36.4 °F 41.0 °F 100% 30.08 in 4.0 mi NNW 6.9 mph - N/A Rain Light Rain
10:35 PM 41.0 °F 38.0 °F 41.0 °F 100% 30.08 in 2.0 mi NE 4.6 mph - N/A Rain Light Rain
10:55 PM 41.0 °F 38.0 °F 41.0 °F 100% 30.05 in 5.0 mi ENE 4.6 mph - N/A Rain Rain
11:15 PM 41.0 °F 38.0 °F 41.0 °F 100% 30.05 in 5.0 mi NNE 4.6 mph - N/A Rain Rain
11:35 PM 42.8 °F 41.1 °F 42.8 °F 100% 30.04 in 7.0 mi NNE 3.5 mph - N/A   Overcast
11:55 PM 42.8 °F 40.1 °F 42.8 °F 100% 30.02 in 5.0 mi NNE 4.6 mph - N/A   Drizzle